[[{"header":{"parameterUnit":"m.s-1","parameterCategory":1,"la1":30.2991,"la2":30.254,"lo1":-89.0895,"lo2":-89.0444,"dy":0.0017,"dx":0.0017,"nx":28,"ny":28,"refTime":"2024-07-11T09:00:00:Z","depth":0,"parameterNumber":2,"parameterNumberName":"U-component_of_WINDS"},"data":[0,0,0,0,0,0,0,0,0,0,0,0,0,0,0,0,0,0,0,0,0,0,0,0,0,0,0,0,0,0,0,0,0,0,0,0,0,0,0,0,0,0,0,0,0,0,0,0,0,0,0,0,0,0,0,0,0,0,0.8109,0.8109,0,0.8105,0.8105,0.8105,0.8091,0.8091,0.809,0.809,0.8087,0.8088,0.8088,0,0,0,0,0,0,0,0,0,0,0,0,0,0.8107,0.8107,0.8109,0.8109,0.8109,0.8105,0.8105,0.8105,0.8091,0.8091,0.809,0.809,0.8087,0.8087,0.8088,0,0,0,0,0,0,0,0,0,0,0,0,0,0.8106,0.8107,0.8109,0.8102,0.8101,0.8105,0.8105,0.8105,0.8091,0.8091,0.809,0.809,0.8087,0.8087,0.8088,0.8099,0,0,0.8089,0.8089,0,0,0,0,0,0,0,0,0.8106,0.8106,0.8103,0.8102,0.8101,0.8098,0.8103,0.8103,0.8091,0.8095,0.809,0.809,0.8091,0.8091,0.8092,0.8099,0.8099,0.8089,0.8089,0.8089,0.8089,0,0,0,0,0,0,0,0.8106,0.8106,0.8107,0.8103,0.8102,0.8099,0.8098,0.8103,0.8096,0.8094,0.8093,0.8093,0.8091,0.8091,0.8091,0.8099,0.8089,0.8089,0.8089,0.8089,0.8117,0.8118,0,0,0,0,0,0,0.8107,0.8106,0.8108,0.8107,0.8103,0.81,0.8099,0.81,0.8096,0.8095,0.8094,0.8092,0.8091,0.8091,0.8091,0.8105,0.8089,0.8089,0.809,0.8117,0.8117,0.8118,0,0,0,0,0,0,0.8107,0.8107,0.8108,0.8107,0.8106,0.81,0.8101,0.81,0.81,0.8095,0.8094,0.8095,0.8091,0.8091,0.8098,0.8105,0.809,0.809,0.8116,0.8117,0.8118,0.8132,0,0,0,0,0,0,0.8107,0.8107,0.8111,0.8107,0.8107,0.8113,0.8101,0.81,0.81,0.8099,0.8096,0.8095,0.809,0.8097,0.8098,0.8105,0.809,0.8115,0.8116,0.8117,0.8131,0.8133,0.8135,0,0,0,0,0,0.8107,0.8115,0.8111,0.8111,0.8111,0.8114,0.8114,0.8107,0.8101,0.8105,0.8102,0.8095,0.8104,0.8098,0.8099,0.8106,0.8115,0.8116,0.8117,0.813,0.8133,0.8135,0,0,0,0,0,0,0.8121,0.8115,0.811,0.8117,0.8116,0.8111,0.8116,0.811,0.8111,0.811,0.8103,0.8102,0.811,0.8109,0.8102,0.8117,0.8108,0.811,0.8118,0.812,0.8122,0.8122,0.809,0,0,0,0,0,0.8124,0.8127,0.8122,0.8128,0.8128,0.8122,0.8123,0.8119,0.8117,0.8117,0.8114,0.8114,0.8117,0.8119,0.8121,0.8131,0.813,0.8136,0.8139,0.814,0.8141,0.8147,0.815,0.8122,0.8122,0.8122,0,0,0.8132,0.8129,0.8131,0.8131,0.8129,0.8133,0.8122,0.8125,0.8128,0.8118,0.8124,0.8122,0.8121,0.813,0.8134,0.8129,0.8149,0.8142,0.8143,0.8143,0.8149,0.8152,0.8154,0.8123,0.8122,0.8122,0,0,0.8148,0.8146,0.8151,0.815,0.8148,0.8145,0.8146,0.8143,0.8141,0.8147,0.814,0.8144,0.8148,0.8148,0.8149,0.8166,0.816,0.8168,0.8178,0.8184,0.8187,0.8189,0.8195,0.8197,0.8169,0.8169,0.8169,0,0.8158,0.8161,0.8155,0.8159,0.816,0.8151,0.8157,0.8157,0.8156,0.8157,0.8152,0.8158,0.8157,0.8166,0.817,0.8171,0.8173,0.8167,0.8187,0.8189,0.819,0.8196,0.8199,0.817,0.817,0.817,0.8169,0,0.8174,0.8177,0.8182,0.8181,0.8182,0.8187,0.8182,0.8185,0.8181,0.8178,0.8185,0.8184,0.8186,0.8188,0.8184,0.8197,0.8194,0.8188,0.8179,0.8194,0.82,0.8202,0.8171,0.8171,0.817,0.817,0,0,0.8196,0.8193,0.8194,0.8194,0.8193,0.8195,0.8201,0.8203,0.8205,0.8206,0.821,0.8215,0.821,0.8211,0.8207,0.8213,0.8227,0.8206,0.8206,0.821,0.8242,0.8246,0.8248,0.8224,0.8224,0.8224,0.8242,0,0.821,0.8219,0.8214,0.8223,0.8226,0.8219,0.8224,0.8224,0.8222,0.8225,0.8224,0.8227,0.822,0.8221,0.8226,0.8224,0.8233,0.8223,0.8228,0.8229,0.8228,0.8251,0.8255,0.8271,0.8244,0.8244,0.8244,0,0.8228,0.8229,0.8239,0.8237,0.8238,0.8243,0.8245,0.8248,0.8248,0.8247,0.8248,0.8244,0.825,0.8242,0.8251,0.8244,0.8247,0.8246,0.8247,0.8246,0.8237,0.8251,0.8276,0.8278,0.8248,0.8248,0.8247,0,0.8243,0.8247,0.8253,0.8254,0.8252,0.8256,0.8256,0.8256,0.8258,0.826,0.8261,0.8264,0.8266,0.8269,0.8266,0.826,0.8276,0.8267,0.8275,0.8275,0.8277,0.8277,0.8303,0.828,0.828,0.828,0.828,0,0.8259,0.8265,0.826,0.8264,0.8271,0.8267,0.8274,0.8273,0.8274,0.8278,0.8272,0.8277,0.8273,0.8277,0.8275,0.8283,0.8284,0.8283,0.8282,0.8283,0.8283,0.8284,0.8282,0.8281,0.828,0.828,0.828,0,0.8276,0.8273,0.828,0.8278,0.8278,0.8284,0.8283,0.8287,0.8286,0.8291,0.8292,0.829,0.8295,0.8292,0.8298,0.8296,0.8307,0.8305,0.8306,0.8306,0.8314,0.8313,0.834,0.8343,0.8319,0.8319,0.8319,0,0.8286,0.8291,0.829,0.8293,0.8293,0.8297,0.8299,0.8295,0.8297,0.8299,0.8303,0.8308,0.8311,0.832,0.8319,0.8323,0.8321,0.833,0.8322,0.8323,0.8321,0.832,0.8321,0.8332,0.8332,0.8332,0.8332,0,0.8305,0.8303,0.8306,0.8309,0.8311,0.8313,0.8315,0.8318,0.8314,0.8317,0.8322,0.8325,0.8331,0.8335,0.8339,0.834,0.8336,0.8336,0.8338,0.8338,0.8339,0.8338,0.8311,0.8335,0.8334,0.8334,0.8334,0.8334,0.8318,0.8322,0.8323,0.8326,0.8328,0.833,0.8333,0.8333,0.8337,0.8341,0.8339,0.8345,0.8347,0.8352,0.8353,0.8358,0.8355,0.8358,0.8358,0.8359,0.836,0.8339,0.8359,0.8359,0.8359,0.8359,0.8359,0,0.8336,0.8336,0.834,0.8342,0.8346,0.8342,0.8344,0.8347,0.8352,0.8354,0.8358,0.8364,0.8369,0.837,0.8375,0.8379,0.8377,0.838,0.8379,0.838,0.8363,0.8361,0.8382,0.8382,0.8382,0.8382,0.8382,0.8382,0.8345,0.8352,0.8351,0.8359,0.8359,0.8365,0.8366,0.8369,0.837,0.8378,0.8382,0.8382,0.8384,0.8389,0.8394,0.8394,0.8396,0.84,0.8399,0.8383,0.8381,0.8379,0.8376,0.84,0.84,0.8416,0.8416,0.8416]},{"header":{"parameterUnit":"m.s-1","parameterCategory":1,"la1":30.2991,"la2":30.254,"lo1":-89.0895,"lo2":-89.0444,"dy":0.0017,"dx":0.0017,"nx":28,"ny":28,"refTime":"2024-07-11T09:00:00:Z","depth":0,"parameterNumber":3,"parameterNumberName":"V-component_of_WINDS"},"data":[0,0,0,0,0,0,0,0,0,0,0,0,0,0,0,0,0,0,0,0,0,0,0,0,0,0,0,0,0,0,0,0,0,0,0,0,0,0,0,0,0,0,0,0,0,0,0,0,0,0,0,0,0,0,0,0,0,0,-1.1874,-1.1875,0,-1.1943,-1.1944,-1.1945,-1.1982,-1.1982,-1.1982,-1.1982,-1.2054,-1.2056,-1.2058,0,0,0,0,0,0,0,0,0,0,0,0,0,-1.1776,-1.1777,-1.1874,-1.1875,-1.1875,-1.1943,-1.1944,-1.1945,-1.1982,-1.1982,-1.1982,-1.1982,-1.2054,-1.2056,-1.2058,0,0,0,0,0,0,0,0,0,0,0,0,0,-1.1829,-1.1778,-1.1874,-1.1902,-1.1905,-1.1943,-1.1944,-1.1945,-1.1982,-1.1982,-1.1982,-1.1982,-1.2053,-1.2056,-1.2059,-1.2074,0,0,-1.2067,-1.2068,0,0,0,0,0,0,0,0,-1.1826,-1.1833,-1.1897,-1.19,-1.1904,-1.1954,-1.1936,-1.1988,-1.1982,-1.1953,-1.1982,-1.1982,-1.2021,-1.2026,-1.2039,-1.2077,-1.2081,-1.2067,-1.2069,-1.207,-1.2071,0,0,0,0,0,0,0,-1.1822,-1.183,-1.1901,-1.1898,-1.1902,-1.1912,-1.192,-1.1946,-1.1985,-1.1955,-1.1958,-1.1966,-1.2023,-1.2036,-1.2041,-1.2082,-1.2067,-1.207,-1.2072,-1.2073,-1.2137,-1.2137,0,0,0,0,0,0,-1.1814,-1.1826,-1.1899,-1.1903,-1.1864,-1.1914,-1.1922,-1.1938,-1.1985,-1.1993,-1.1965,-1.1967,-1.2032,-1.2038,-1.2044,-1.2066,-1.207,-1.2073,-1.2075,-1.2137,-1.2137,-1.2137,0,0,0,0,0,0,-1.1811,-1.182,-1.1896,-1.1866,-1.1876,-1.1915,-1.1932,-1.1939,-1.1953,-1.1993,-1.2,-1.1972,-1.2032,-1.204,-1.2066,-1.2069,-1.2074,-1.2077,-1.2137,-1.2137,-1.2137,-1.2109,0,0,0,0,0,0,-1.1808,-1.1819,-1.1824,-1.1866,-1.1878,-1.1917,-1.1932,-1.194,-1.1957,-1.196,-1.2001,-1.2008,-1.2033,-1.2062,-1.2069,-1.2073,-1.2079,-1.2137,-1.2137,-1.2137,-1.211,-1.2108,-1.2107,0,0,0,0,0,-1.1805,-1.1814,-1.1824,-1.1833,-1.1885,-1.1917,-1.1924,-1.1951,-1.1957,-1.1964,-1.199,-1.2007,-1.2067,-1.2064,-1.2073,-1.2077,-1.2137,-1.2137,-1.2137,-1.2111,-1.2109,-1.2107,0,0,0,0,0,0,-1.1772,-1.182,-1.1832,-1.1854,-1.1881,-1.1923,-1.1932,-1.1948,-1.1974,-1.1976,-1.201,-1.2019,-1.2042,-1.2063,-1.2058,-1.2095,-1.2104,-1.2106,-1.2081,-1.208,-1.2078,-1.2073,-1.2081,0,0,0,0,0,-1.1768,-1.1789,-1.1829,-1.1845,-1.1858,-1.1892,-1.1907,-1.1926,-1.1956,-1.1967,-1.1995,-1.2024,-1.2049,-1.2066,-1.2091,-1.2113,-1.2123,-1.2121,-1.2119,-1.2117,-1.2119,-1.2133,-1.2133,-1.2137,-1.2137,-1.2137,0,0,-1.1759,-1.1787,-1.1798,-1.1839,-1.1862,-1.1884,-1.1902,-1.1924,-1.1941,-1.1971,-1.1998,-1.2019,-1.2053,-1.2078,-1.209,-1.2095,-1.212,-1.2118,-1.2116,-1.2118,-1.2133,-1.2133,-1.2132,-1.2137,-1.2137,-1.2137,0,0,-1.1753,-1.1776,-1.1793,-1.1815,-1.185,-1.1873,-1.1877,-1.1916,-1.1932,-1.1959,-1.1982,-1.2003,-1.2046,-1.207,-1.2087,-1.2092,-1.2109,-1.2099,-1.2091,-1.2104,-1.2104,-1.2104,-1.2106,-1.2106,-1.21,-1.21,-1.21,0,-1.1738,-1.1771,-1.1799,-1.182,-1.1838,-1.1866,-1.1883,-1.1904,-1.1946,-1.1958,-1.1963,-1.2018,-1.2043,-1.2074,-1.2075,-1.2088,-1.2095,-1.2095,-1.2101,-1.2101,-1.2102,-1.2104,-1.2105,-1.2099,-1.2099,-1.2099,-1.2099,0,-1.1751,-1.1773,-1.1782,-1.1821,-1.184,-1.1859,-1.1891,-1.1907,-1.1925,-1.1947,-1.1975,-1.2006,-1.2039,-1.2048,-1.2065,-1.2081,-1.2084,-1.2095,-1.2104,-1.21,-1.2103,-1.2104,-1.2097,-1.2097,-1.2098,-1.2098,0,0,-1.1727,-1.1781,-1.1784,-1.1802,-1.1843,-1.1861,-1.1882,-1.1914,-1.1927,-1.1955,-1.1974,-1.201,-1.202,-1.204,-1.2061,-1.2073,-1.2075,-1.2082,-1.2084,-1.2081,-1.2096,-1.2088,-1.2089,-1.2086,-1.2087,-1.2087,-1.2094,0,-1.1728,-1.1765,-1.1792,-1.182,-1.1842,-1.1869,-1.1887,-1.1914,-1.1936,-1.1958,-1.1983,-1.2008,-1.202,-1.2032,-1.2045,-1.2072,-1.2079,-1.2072,-1.2105,-1.2106,-1.2096,-1.209,-1.2082,-1.2086,-1.2095,-1.2095,-1.2095,0,-1.1734,-1.176,-1.179,-1.1829,-1.1839,-1.1854,-1.1886,-1.1907,-1.1939,-1.1954,-1.1976,-1.1997,-1.2022,-1.2028,-1.2063,-1.2057,-1.2073,-1.2088,-1.2089,-1.2094,-1.2101,-1.2095,-1.2088,-1.2089,-1.2097,-1.2097,-1.2097,0,-1.1714,-1.1758,-1.1781,-1.1796,-1.1841,-1.1852,-1.1872,-1.1903,-1.1921,-1.1949,-1.1961,-1.1991,-1.2008,-1.2032,-1.2061,-1.2063,-1.2093,-1.2102,-1.2107,-1.2106,-1.2112,-1.2111,-1.2108,-1.2121,-1.2121,-1.2121,-1.2121,0,-1.1713,-1.1731,-1.1773,-1.1788,-1.1808,-1.1839,-1.1859,-1.1881,-1.1909,-1.1929,-1.1955,-1.1973,-1.201,-1.2033,-1.2056,-1.2082,-1.2089,-1.2103,-1.2109,-1.2101,-1.2099,-1.2112,-1.2112,-1.2121,-1.2121,-1.2121,-1.2121,0,-1.1695,-1.1724,-1.1752,-1.1793,-1.1803,-1.1817,-1.1852,-1.1868,-1.1891,-1.1916,-1.1924,-1.1961,-1.199,-1.2021,-1.206,-1.2076,-1.21,-1.2109,-1.2089,-1.2093,-1.2096,-1.2096,-1.2101,-1.2104,-1.2114,-1.2114,-1.2114,0,-1.1693,-1.1707,-1.1749,-1.1764,-1.1782,-1.1806,-1.1824,-1.1855,-1.1873,-1.1911,-1.1922,-1.1953,-1.1979,-1.2024,-1.2055,-1.2086,-1.2095,-1.2095,-1.21,-1.2092,-1.2096,-1.2095,-1.2097,-1.2094,-1.2093,-1.2093,-1.2093,0,-1.1686,-1.1699,-1.1724,-1.1754,-1.1774,-1.18,-1.1826,-1.1837,-1.1874,-1.1893,-1.1922,-1.1942,-1.1982,-1.2013,-1.2047,-1.2069,-1.2087,-1.2091,-1.2094,-1.2086,-1.2075,-1.2082,-1.2086,-1.2091,-1.2091,-1.2091,-1.2091,-1.2091,-1.1676,-1.169,-1.1722,-1.1749,-1.1772,-1.1796,-1.1812,-1.1838,-1.1863,-1.1897,-1.1914,-1.1944,-1.1977,-1.2025,-1.2045,-1.207,-1.2075,-1.2079,-1.2081,-1.2081,-1.2079,-1.207,-1.2076,-1.2076,-1.2076,-1.2076,-1.2076,0,-1.1671,-1.1693,-1.1717,-1.1753,-1.1774,-1.1789,-1.1819,-1.1836,-1.1861,-1.189,-1.1915,-1.1949,-1.1979,-1.2012,-1.2044,-1.2057,-1.2067,-1.2065,-1.2065,-1.2069,-1.2072,-1.2067,-1.2057,-1.2057,-1.2057,-1.2057,-1.2057,-1.2057,-1.1671,-1.1695,-1.1713,-1.1749,-1.1771,-1.18,-1.1816,-1.1839,-1.1862,-1.1898,-1.1923,-1.1944,-1.1975,-1.201,-1.2038,-1.2047,-1.2058,-1.2054,-1.2065,-1.2067,-1.2069,-1.2071,-1.2066,-1.2056,-1.2056,-1.2061,-1.2061,-1.2061]}]]